Weather History for K2G4 - April, 2014

Change the Weather History Date:

Sunday, April 6, 2014

  Actual Average (KMGW) Record (KMGW)
Temperature  
Mean Temperature 40 °F 50 °F  
Max Temperature 51 °F 60 °F 88 °F (2010)
Min Temperature 28 °F 39 °F 21 °F (1982)
Degree Days  
Heating Degree Days 26 16  
Month to date heating degree days 99  
Since 1 July heating degree days 4700  
Cooling Degree Days 0 0  
Month to date cooling degree days 0  
Year to date cooling degree days 2  
Moisture  
Dew Point 12 °F    
Average Humidity 39    
Maximum Humidity 69    
Minimum Humidity 14    
Precipitation  
Precipitation 0.00 in 0.11 in 0.65 in (1962)
Month to date precipitation 0.71  
Year to date precipitation 9.77  
Sea Level Pressure  
Sea Level Pressure 30.11 in    
Wind  
Wind Speed 7 mph (ESE)    
Max Wind Speed 17 mph    
Max Gust Speed 23 mph    
Visibility 10 miles    
Events      
T = Trace of Precipitation, MM = Missing Value Source: NWS Daily Summary

Daily Weather History Graph

Daily Weather History Graph

Search for Another Location

Airport or City:

Trip Planner

Search our weather history database for the weather conditions in past years. The results will help you decide how hot, cold, wet, or windy it might be!

Date:

Astronomy

Apr. 06, 2014 Rise Set
Actual Time 6:53 AM EDT 7:46 PM EDT
Civil Twilight 6:26 AM EDT 8:13 PM EDT
Nautical Twilight 5:54 AM EDT 8:46 PM EDT
Astronomical Twilight 5:20 AM EDT 9:20 PM EDT
Moon 11:53 AM EDT (4/6) 1:40 AM EDT (4/6)
Length of Visible Light 13h 47m
Length of Day
12h 52m
Waxing Crescent, 43% of the Moon is Illuminated
Apr 6
Waxing Crescent
Apr 7
First Quarter
Apr 15
Full
Apr 22
Last Quarter
Apr 29
New

Hourly Weather History & Observations

Time (EDT) Temp. Windchill Dew Point Humidity Pressure Visibility Wind Dir Wind Speed Gust Speed Precip Events Conditions
12:05 AM 32.0 °F 26.4 °F 21.2 °F 64% 30.13 in 10.0 mi NW 5.8 mph - N/A   Clear
12:25 AM 30.2 °F 25.4 °F 21.2 °F 69% 30.12 in 10.0 mi NW 4.6 mph - N/A   Clear
12:45 AM 30.2 °F 24.3 °F 21.2 °F 69% 30.13 in 10.0 mi NW 5.8 mph - N/A   Clear
1:05 AM 30.2 °F 22.6 °F 21.2 °F 69% 30.12 in 10.0 mi WNW 8.1 mph - N/A   Clear
1:25 AM 30.2 °F 24.3 °F 19.4 °F 64% 30.11 in 10.0 mi NW 5.8 mph - N/A   Clear
1:45 AM 30.2 °F 26.7 °F 19.4 °F 64% 30.11 in 10.0 mi NW 3.5 mph - N/A   Clear
2:05 AM 30.2 °F 25.4 °F 19.4 °F 64% 30.11 in 10.0 mi NW 4.6 mph - N/A   Clear
2:25 AM 30.2 °F 25.4 °F 19.4 °F 64% 30.11 in 10.0 mi NW 4.6 mph - N/A   Clear
2:45 AM 30.2 °F 25.4 °F 19.4 °F 64% 30.11 in 10.0 mi NW 4.6 mph - N/A   Clear
3:05 AM 30.2 °F 25.4 °F 19.4 °F 64% 30.11 in 10.0 mi NW 4.6 mph - N/A   Clear
3:25 AM 30.2 °F 24.3 °F 19.4 °F 64% 30.11 in 10.0 mi NNW 5.8 mph - N/A   Clear
3:45 AM 30.2 °F 26.7 °F 19.4 °F 64% 30.11 in 10.0 mi NNW 3.5 mph - N/A   Clear
4:05 AM 28.4 °F 24.6 °F 19.4 °F 69% 30.11 in 10.0 mi North 3.5 mph - N/A   Clear
4:25 AM 28.4 °F 24.6 °F 19.4 °F 69% 30.11 in 10.0 mi North 3.5 mph - N/A   Clear
4:45 AM 28.4 °F 24.6 °F 19.4 °F 69% 30.12 in 10.0 mi NNW 3.5 mph - N/A   Clear
5:05 AM 30.2 °F - 19.4 °F 64% 30.12 in 10.0 mi Calm Calm - N/A   Clear
5:25 AM 30.2 °F - 19.4 °F 64% 30.13 in 10.0 mi Calm Calm - N/A   Clear
5:45 AM 30.2 °F 26.7 °F 19.4 °F 64% 30.13 in 10.0 mi NNW 3.5 mph - N/A   Clear
6:05 AM 30.2 °F - 17.6 °F 60% 30.13 in 10.0 mi Calm Calm - N/A   Clear
6:25 AM 30.2 °F - 17.6 °F 60% 30.13 in 10.0 mi Calm Calm - N/A   Clear
6:45 AM 30.2 °F - 17.6 °F 60% 30.14 in 10.0 mi Calm Calm - N/A   Clear
7:05 AM 30.2 °F - 17.6 °F 60% 30.14 in 10.0 mi Calm Calm - N/A   Clear
7:25 AM 30.2 °F - 17.6 °F 60% 30.14 in 10.0 mi Calm Calm - N/A   Clear
7:45 AM 32.0 °F - 15.8 °F 51% 30.15 in 10.0 mi Calm Calm - N/A   Clear
8:05 AM 32.0 °F 28.7 °F 15.8 °F 51% 30.15 in 10.0 mi NE 3.5 mph - N/A   Clear
8:25 AM 32.0 °F 28.7 °F 14.0 °F 48% 30.14 in 10.0 mi NE 3.5 mph - N/A   Clear
8:45 AM 32.0 °F 27.5 °F 12.2 °F 44% 30.14 in 10.0 mi East 4.6 mph - N/A   Clear
9:05 AM 32.0 °F 26.4 °F 14.0 °F 48% 30.15 in 10.0 mi ESE 5.8 mph - N/A   Clear
9:25 AM 33.8 °F 27.0 °F 12.2 °F 41% 30.15 in 10.0 mi ESE 8.1 mph - N/A   Clear
9:45 AM 33.8 °F 25.8 °F 15.8 °F 48% 30.15 in 10.0 mi East 10.4 mph - N/A   Clear
10:05 AM 35.6 °F 27.5 °F 14.0 °F 41% 30.15 in 10.0 mi ESE 11.5 mph - N/A   Clear
10:25 AM 35.6 °F 29.2 °F 14.0 °F 41% 30.15 in 10.0 mi East 8.1 mph - N/A   Clear
10:45 AM 37.4 °F 30.8 °F 10.4 °F 33% 30.15 in 10.0 mi ESE 9.2 mph - N/A   Clear
11:05 AM 41.0 °F 35.2 °F 12.2 °F 31% 30.16 in 10.0 mi SE 9.2 mph - N/A   Clear
11:25 AM 41.0 °F 35.2 °F 8.6 °F 26% 30.16 in 10.0 mi SSE 9.2 mph - N/A   Clear
11:45 AM 41.0 °F 35.2 °F 10.4 °F 29% 30.15 in 10.0 mi SE 9.2 mph - N/A   Clear
12:05 PM 42.8 °F 37.5 °F 8.6 °F 25% 30.15 in 10.0 mi ESE 9.2 mph 17.3 mph N/A   Clear
12:25 PM 42.8 °F 37.5 °F 6.8 °F 23% 30.14 in 10.0 mi SE 9.2 mph 16.1 mph N/A   Clear
12:45 PM 44.6 °F 40.7 °F 10.4 °F 25% 30.13 in 10.0 mi SE 6.9 mph - N/A   Clear
1:05 PM 46.4 °F 41.1 °F 10.4 °F 23% 30.13 in 10.0 mi SE 11.5 mph - N/A   Clear
1:25 PM 46.4 °F 41.9 °F 8.6 °F 22% 30.13 in 10.0 mi SE 9.2 mph 19.6 mph N/A   Clear
1:45 PM 46.4 °F 41.9 °F 6.8 °F 20% 30.13 in 10.0 mi ESE 9.2 mph 18.4 mph N/A   Clear
2:05 PM 48.2 °F - 5.0 °F 17% 30.12 in 10.0 mi ESE 12.7 mph 18.4 mph N/A   Clear
2:25 PM 50.0 °F - 5.0 °F 16% 30.11 in 10.0 mi SE 9.2 mph 17.3 mph N/A   Clear
2:45 PM 48.2 °F - 6.8 °F 19% 30.10 in 10.0 mi ESE 12.7 mph 16.1 mph N/A   Clear
3:05 PM 50.0 °F - 8.6 °F 19% 30.09 in 10.0 mi ESE 10.4 mph 16.1 mph N/A   Clear
3:25 PM 48.2 °F - 10.4 °F 22% 30.08 in 10.0 mi East 11.5 mph - N/A   Clear
3:45 PM 51.8 °F - 8.6 °F 18% 30.06 in 10.0 mi SE 12.7 mph 17.3 mph N/A   Clear
4:05 PM 50.0 °F - 5.0 °F 16% 30.06 in 10.0 mi SE 11.5 mph 19.6 mph N/A   Clear
4:25 PM 51.8 °F - 8.6 °F 18% 30.05 in 10.0 mi ESE 13.8 mph 18.4 mph N/A   Clear
5:05 PM 50.0 °F - 5.0 °F 16% 30.05 in 10.0 mi ESE 15.0 mph 20.7 mph N/A   Clear
5:25 PM 51.8 °F - 5.0 °F 15% 30.07 in 10.0 mi SE 10.4 mph - N/A   Clear
5:45 PM 51.8 °F - 3.2 °F 14% 30.08 in 10.0 mi SE 13.8 mph 21.9 mph N/A   Clear
6:05 PM 51.8 °F - 5.0 °F 15% 30.07 in 10.0 mi ESE 16.1 mph - N/A   Clear
6:25 PM 50.0 °F - 5.0 °F 16% 30.06 in 10.0 mi ESE 11.5 mph 18.4 mph N/A   Clear
6:45 PM 48.2 °F - 6.8 °F 19% 30.06 in 10.0 mi ESE 11.5 mph - N/A   Clear
7:05 PM 46.4 °F 41.1 °F 8.6 °F 22% 30.06 in 10.0 mi ESE 11.5 mph 17.3 mph N/A   Clear
7:25 PM 46.4 °F 40.4 °F 8.6 °F 22% 30.05 in 10.0 mi ESE 13.8 mph 19.6 mph N/A   Clear
7:45 PM 44.6 °F 37.8 °F 5.0 °F 20% 30.05 in 10.0 mi ESE 15.0 mph 19.6 mph N/A   Clear
8:05 PM 44.6 °F 38.4 °F 5.0 °F 20% 30.06 in 10.0 mi ESE 12.7 mph - N/A   Clear
8:25 PM 44.6 °F 37.8 °F 6.8 °F 21% 30.06 in 10.0 mi ESE 15.0 mph - N/A   Clear
8:45 PM 42.8 °F 34.8 °F 8.6 °F 25% 30.06 in 10.0 mi ESE 17.3 mph - N/A   Clear
9:05 PM 42.8 °F 35.1 °F 8.6 °F 25% 30.07 in 10.0 mi ESE 16.1 mph 21.9 mph N/A   Clear
9:25 PM 42.8 °F 35.4 °F 8.6 °F 25% 30.07 in 10.0 mi ESE 15.0 mph 23.0 mph N/A   Clear
9:45 PM 42.8 °F 35.8 °F 10.4 °F 27% 30.07 in 10.0 mi ESE 13.8 mph 23.0 mph N/A   Clear
10:05 PM 41.0 °F 32.8 °F 10.4 °F 29% 30.07 in 10.0 mi ESE 16.1 mph 20.7 mph N/A   Clear
10:25 PM 41.0 °F 32.8 °F 10.4 °F 29% 30.07 in 10.0 mi ESE 16.1 mph 20.7 mph N/A   Clear
10:45 PM 41.0 °F 33.1 °F 10.4 °F 29% 30.06 in 10.0 mi SE 15.0 mph - N/A   Clear
11:05 PM 41.0 °F 33.9 °F 10.4 °F 29% 30.06 in 10.0 mi SE 12.7 mph - N/A   Clear
11:25 PM 41.0 °F 33.9 °F 10.4 °F 29% 30.06 in 10.0 mi ESE 12.7 mph - N/A   Clear
11:45 PM 41.0 °F 33.9 °F 10.4 °F 29% 30.06 in 10.0 mi SE 12.7 mph 18.4 mph N/A   Clear